Location: Unspecified
(40.9447°N, 78.9903°W)
Time: 21:40:09
(UTC-04:00)

CZ-3 Stage 3 - Visible Passes

Search period start: 26 July 2021 00:00
Search period end: 05 August 2021 00:00
Orbit: 409 x 34775 km, 30.4° (Epoch: 26 July)

Date Brightness Start Highest point End Pass type
(mag) Time Alt. Az. Time Alt. Az. Time Alt. Az.
27 Jul 3.8 04:23:44 15° SSE 04:23:44 15° SSE 04:25:53 10° SE visible
28 Jul 5.9 20:10:16 10° SSW 20:56:38 18° S 21:07:26 10° SE visible
30 Jul 4.1 04:13:02 13° SSE 04:13:02 13° SSE 04:14:20 10° SE visible
31 Jul 6.1 00:26:29 10° SW 00:27:07 11° SW 00:27:07 11° SW visible
02 Aug 4.4 04:02:21 11° SSE 04:02:21 11° SSE 04:02:47 10° SE visible
03 Aug 5.9 00:14:35 10° SW 00:16:29 13° SW 00:16:29 13° SW visible
